Voltar ao catálogo

STARLINK-3944

AtivoComunicaçõesVLEO
NORAD 52544·PAYLOAD·🇺🇸 United States

Lançado May 13, 2022 de Vandenberg Space Force Base

Loading…

Próximas Passagens (próximas 24 horas)

TLE

AtualizadoSource: CelesTrak SupGP

Época: Sep 14, 2026, 14:22 UTC

1 52544C 22051M   26257.59909722 -.00008864  00000+0 -28513-3 0  2571
2 52544  53.1601   1.5205 0001159  83.9691 344.7876 15.31698442    16

Acompanhe STARLINK-3944 em tempo real com AllMySat

Download on the App Store